timestamp,wind_dir_avg,wind_spd_avg,wind_spd_max_dir,wind_spd_gust,battery_voltage,lat,long
2022-01-17 13:14:00+00:00,284.0,4.1,282.0,5.98,13.84,47.59359,-54.27349
2022-01-17 13:24:00+00:00,263.0,3.83,265.0,5.08,13.84,47.59359,-54.27349
2022-01-17 13:34:00+00:00,269.0,3.52,278.0,5.16,13.84,47.59359,-54.27349
2022-01-17 13:44:00+00:00,274.0,4.35,265.0,6.19,13.84,47.59359,-54.27349
2022-01-17 13:54:00+00:00,276.0,4.12,274.0,6.31,13.84,47.59359,-54.27349
2022-01-17 14:04:00+00:00,280.0,5.94,285.0,6.65,13.84,47.59359,-54.27349
2022-01-17 14:14:00+00:00,266.0,3.88,271.0,4.53,14.32,47.59359,-54.27349
2022-01-17 14:24:00+00:00,283.0,4.06,284.0,5.19,14.32,47.59359,-54.27349
2022-01-17 14:34:00+00:00,280.0,4.07,277.0,4.79,14.32,47.59359,-54.27349
2022-01-17 14:44:00+00:00,273.0,4.08,273.0,6.49,14.32,47.59359,-54.27349
2022-01-17 14:54:00+00:00,268.0,5.51,268.0,5.77,14.32,47.59359,-54.27349
2022-01-17 15:04:00+00:00,270.0,5.62,271.0,6.34,14.32,47.59359,-54.27349
2022-01-17 15:14:00+00:00,173.0,1.22,175.0,1.57,14.0,47.59359,-54.27349
2022-01-17 15:24:00+00:00,216.0,1.43,245.0,2.15,14.0,47.59359,-54.27349
2022-01-17 15:34:00+00:00,215.0,1.29,227.0,1.7,14.0,47.59359,-54.27349
2022-01-17 15:44:00+00:00,191.0,1.71,193.0,2.13,14.0,47.59359,-54.27349
2022-01-17 15:54:00+00:00,193.0,2.28,223.0,3.18,14.0,47.59359,-54.27349
2022-01-17 16:04:00+00:00,218.0,4.14,238.0,6.13,14.0,47.59359,-54.27349
2022-01-17 16:14:00+00:00,191.0,3.78,182.0,5.55,13.68,47.59359,-54.27349
2022-01-17 16:24:00+00:00,222.0,3.88,243.0,6.18,13.68,47.59359,-54.27349
2022-01-17 16:34:00+00:00,209.0,5.16,220.0,5.97,13.68,47.59359,-54.27349
2022-01-17 16:44:00+00:00,199.0,5.25,215.0,6.84,13.68,47.59359,-54.27349
2022-01-17 16:54:00+00:00,207.0,5.31,206.0,6.0,13.68,47.59359,-54.27349
2022-01-17 17:04:00+00:00,210.0,5.64,204.0,6.5,13.68,47.59359,-54.27349
2022-01-17 17:14:00+00:00,207.0,5.37,210.0,6.11,13.92,47.59359,-54.27349
2022-01-17 17:24:00+00:00,214.0,6.19,213.0,7.26,13.92,47.59359,-54.27349
2022-01-17 17:34:00+00:00,213.0,6.45,214.0,7.89,13.92,47.59359,-54.27349
2022-01-17 17:44:00+00:00,213.0,5.89,214.0,7.15,13.92,47.59359,-54.27349
2022-01-17 17:54:00+00:00,231.0,7.85,233.0,9.07,13.92,47.59359,-54.27349
2022-01-17 18:04:00+00:00,224.0,6.87,230.0,8.24,13.92,47.59359,-54.27349
2022-01-17 18:14:01+00:00,231.0,5.72,237.0,6.76,14.32,47.59359,-54.27349
2022-01-17 18:24:01+00:00,227.0,5.94,234.0,6.87,14.32,47.59359,-54.27349
2022-01-17 18:34:01+00:00,223.0,6.38,218.0,7.16,14.32,47.59359,-54.27349
2022-01-17 18:44:01+00:00,211.0,5.94,213.0,6.65,14.32,47.59359,-54.27349
2022-01-17 18:54:01+00:00,216.0,5.54,221.0,6.63,14.32,47.59359,-54.27349
2022-01-17 19:04:01+00:00,223.0,5.41,224.0,6.87,14.32,47.59359,-54.27349
2022-01-17 19:14:00+00:00,217.0,5.42,217.0,6.28,13.53,47.59359,-54.27349
2022-01-17 19:24:00+00:00,231.0,5.59,225.0,6.48,13.53,47.59359,-54.27349
2022-01-17 19:34:00+00:00,231.0,4.56,230.0,5.51,13.53,47.59359,-54.27349
2022-01-17 19:44:00+00:00,226.0,5.28,223.0,6.12,13.53,47.59359,-54.27349
2022-01-17 19:54:00+00:00,224.0,4.83,226.0,5.83,13.53,47.59359,-54.27349
2022-01-17 20:04:00+00:00,233.0,4.11,220.0,4.78,13.53,47.59359,-54.27349
2022-01-17 20:14:00+00:00,219.0,5.19,218.0,5.65,12.73,47.59359,-54.27349
2022-01-17 20:24:00+00:00,209.0,3.74,222.0,4.81,12.73,47.59359,-54.27349
2022-01-17 20:34:00+00:00,210.0,3.34,230.0,5.07,12.73,47.59359,-54.27349
2022-01-17 20:44:00+00:00,227.0,5.59,224.0,6.23,12.73,47.59359,-54.27349
2022-01-17 20:54:00+00:00,225.0,4.39,226.0,5.24,12.73,47.59359,-54.27349
2022-01-17 21:04:00+00:00,185.0,5.31,188.0,5.81,12.73,47.59359,-54.27349
2022-01-17 21:14:01+00:00,218.0,5.64,217.0,7.59,12.57,47.59359,-54.27349
2022-01-17 21:24:01+00:00,205.0,5.71,210.0,7.1,12.57,47.59359,-54.27349
2022-01-17 21:34:01+00:00,207.0,6.21,210.0,7.12,12.57,47.59359,-54.27349
2022-01-17 21:44:01+00:00,234.0,5.98,250.0,7.01,12.57,47.59359,-54.27349
2022-01-17 21:54:01+00:00,219.0,6.86,218.0,7.48,12.57,47.59359,-54.27349
2022-01-17 22:04:01+00:00,203.0,7.11,205.0,8.26,12.57,47.59359,-54.27349
2022-01-17 22:14:00+00:00,173.0,5.55,165.0,6.43,12.57,47.59359,-54.27349
2022-01-17 22:24:00+00:00,210.0,5.09,213.0,5.8,12.57,47.59359,-54.27349
2022-01-17 22:34:00+00:00,218.0,6.69,217.0,7.44,12.57,47.59359,-54.27349
2022-01-17 22:44:00+00:00,214.0,6.44,214.0,7.84,12.57,47.59359,-54.27349
2022-01-17 22:54:00+00:00,199.0,7.86,199.0,9.96,12.57,47.59359,-54.27349
2022-01-17 23:04:00+00:00,172.0,6.35,167.0,6.87,12.57,47.59359,-54.27349
2022-01-17 23:14:01+00:00,215.0,7.26,213.0,8.43,12.57,47.59359,-54.27349
2022-01-17 23:24:01+00:00,218.0,7.28,217.0,8.05,12.57,47.59359,-54.27349
2022-01-17 23:34:01+00:00,213.0,6.23,211.0,7.13,12.57,47.59359,-54.27349
2022-01-17 23:44:01+00:00,169.0,7.13,170.0,7.93,12.57,47.59359,-54.27349
2022-01-17 23:54:01+00:00,168.0,7.43,174.0,8.18,12.57,47.59359,-54.27349
